DECAYED
Showing default

PICO-02E025, 60572 (Decayed)

Orbit data source: Space-Track

PICO-02E025, 60572 was a payload satellite owned by Apogeo Space (IT) in LEO that was launched on Fri, 16 Aug 2024 UTC via an FALCON 9 launch vehicle from the Air Force Western Test Range (AFWTR). Payload-class satellites include a variety of spacecraft equipped with specific instruments for various scientific and technological missions. These include communications satellites like Starlink; space stations such as the ISS; scientific satellites like the Hubble; Earth observation satellites from companies like Planet Labs, Umbra, and HawkEye 360; GPS; miniature CubeSats for education and research; and military/defense satellites.

Not visible in the next 10 days
Identifier
60572, 2024-149DJ
Orbit
Decayed
Country
Flag of ITIT
Related business
Manufacturer
Apogeo Space
Mission
Decayed Commercial Communications
Bus & Motor
CUBESAT 0.3U, Unknown motor
Mass
0.5 kg wet, 0.5 kg dry
Launch date (UTC)
2024-08-16 (2 years ago)
Launch vehicle
FALCON 9
Launch site
Air Force Western Test Range (AFWTR)
Object type
Payload
Rocket body
Debris
Shape & HBR
Box, 0.1 m
Radar Cross Section
0.008 m², Medium (>0.1 m² and < 1m²)

Expand to show TLE details & history
Last TLE update: 6 months ago

TLE from 6 months ago
0 PICO-02E025
1 60572U 24149DJ  25363.80703697  .14311093  26305-5  31358-2 0  9994
2 60572  97.6760  96.6874 0011860 307.6314  52.3903 16.30319946 75890
Epoch: 2025-12-29T19:22Z
TLE epoch observation values (Epoch: 2025-12-29T19:22:07.994Z)
Latitude
0.00006°
Longitude
67.65471°
Altitude
190.16 km
Speed
7.795 km/s
True Right ascension
06h 26m 44s
True Declination
0° 00' 00"
Sunlit
Object was in full shadow at epoch
Visualization orbit readout
Latitude
Unknown
Longitude
Unknown
Altitude
Unknown
Speed
Unknown
Apparent Right ascension
Unknown
Apparent Declination
Unknown
Sunlit
N/A
Visualization observer readout
Local Sidereal Time
16:56:58
Azimuth
Unknown
Elevation
Unknown
Doppler factor
Unknown
Orbital elements
Apogee altitude
196.301 km
Perigee altitude
180.725 km
Semi-major axis
6,566.65 km
Eccentricity
0.00119
Inclination
97.676°
RAAN
96.6874°
Arg. of periapsis
307.6314°
True anomaly
52.49806°
Mean anomaly
52.3903°
Eccentric anomaly
52.44417°
Mean motion
4.07875 °/min
Orbital period
88.26 mins
BSTAR
0.0031358
Loading maneuver chart data...
Computing Atmospheric mass density...
Loading historical data...
Loading historical data...
Loading historical data...
Loading historical data...
Loading historical data...
Loading historical data...
Loading historical data...

Documentation

Showing up to 5 results
|